Tracking 30743 objects as of 22-Jun-2025
HD Live streaming from Space Station
objects crossing your sky now

ONEWEB-0568

Track ONEWEB-0568 now!
10-day predictions
ONEWEB-0568 is classified as:


NORAD ID: 56062
Int'l Code: 2023-043S
Perigee: 1,203.5 km
Apogee: 1,206.3 km
Inclination: 87.9 °
Period: 109.4 minutes
Semi major axis: 7575 km
RCS: Unknown
Launch date: March 26, 2023
Source: United Kingdom (UK)
Launch site: SRIHARIKOTA (SRI)
Your satellite tracking list
Your tracking list is empty




NASA's NSSDC Master Catalog

Two Line Element Set (TLE):
1 56062U 23043S   25172.78534241  .00000001  00000-0 -30522-4 0  9990
2 56062  87.9057 300.5942 0001789  91.1848 268.9488 13.16593112111556
Source of the keplerian elements: AFSPC